SL-16 R/B (25861 NORAD) Tracking and Keplerian Element Data

This shows tracking and keplerian element data for the satellite.

Feedback or suggestion? Click here.




ElementValue
Catalog25861
NameSL-16 R/B
Epoch Orbit32042
Epoch Day12.91053617
Epoch Year2024
RAAN57.5633
Inclination98.1125
Eccentricity0.0014053
Argument of Perigee284.9745
Mean Anonmoly74.991
Mean Motion14.79741514
Decay Rate1.008E-05
L11 25861U 99039B 24012.91053617 .00001008 00000+0 14117-3 0 9998
L22 25861 98.1125 57.5633 0014053 284.9745 74.9910 14.79741514320425



Live tracking and technical data element details for SL-16 R/B (NORAD 25861). SL-16 R/B can be tracked NOW for your location showing map with azimuth and elevation plus other details from your city location.







IsCatalogInMostPopularTable: catalog: 25861, numindb: 417
Update: records affected: 1



GetName: 25861 SL-16 R/B

Hit Count: updated at: Fri, 19 Apr 2024 11:45:14 GMT